Regional Weather Roundup
Issued by NWS

Home | Current Version | Previous Version | Graphics & Text | Print | Product List | Glossary On
Versions: 1 2 3 4 5 6 7 8 9 10 11 12 13 14 15 16 17 18 19 20 21 22 23 24 25 26 27 28 29 30 31 32 33 34 35 36 37 38 39 40 41 42 43 44 45 46 47 48 49 50
000
ASUS43 KLSX 040059
RWRMO

WEATHER SUMMARY FOR MISSOURI
NATIONAL WEATHER SERVICE SPRINGFIELD MO
700 PM CST TUE MAR 03 2015

NOTE: "FAIR" INDICATES FEW OR NO CLOUDS BELOW 12,000 FEET WITH NO
       SIGNIFICANT WEATHER AND/OR OBSTRUCTIONS TO VISIBILITY.
       CURRENT SKY AND/OR WEATHER CONDITIONS ARE NOT AVAILABLE FOR
       CHILLICOTHE AND FARMINGTON.

MOZ001>031-035>038-043-044-053-054-040200-
...NORTHERN AND WESTERN MISSOURI...

CITY           SKY/WX    TMP DP  RH WIND       PRES   REMARKS
KANSAS CTY INT CLOUDY    35  27  72 N10       29.94R WCI  27
KANSAS C DTWN  CLOUDY    40  28  62 N10       29.94R
LEE`S SUMMIT   CLOUDY    38  29  70 N9        29.93R
ST JOSEPH      CLOUDY    33  24  69 N12       29.98R WCI  24
CHILLICOTHE      N/A     36  27  69 NW3       29.95R

$$
MOZ066>068-077>081-088>096-101>105-040200-
...SOUTHWEST MISSOURI...

CITY           SKY/WX    TMP DP  RH WIND       PRES   REMARKS
SPRINGFIELD    CLOUDY    42  40  92 NW7       29.86R
JOPLIN         CLOUDY    45  43  93 CALM      29.88R

$$
MOZ032>034-039>042-045>050-055>058-069>072-040200-
...CENTRAL MISSOURI...

CITY           SKY/WX    TMP DP  RH WIND       PRES   REMARKS
COLUMBIA       CLOUDY    38  37  97 NW9       29.90R FOG
JEFFERSON CITY CLOUDY    41  38  89 NW9       29.91R
ROLLA          LGT RAIN  42  38  85 NW6       29.85S
SEDALIA        CLOUDY    38  33  82 NW10      29.93R
OSAGE BEACH    CLOUDY    45  39  81 NW3       29.89R

$$
MOZ051-052-059>065-040200-
...EAST CENTRAL MISSOURI...

CITY           SKY/WX    TMP DP  RH WIND       PRES   REMARKS
ST LOUIS INTL  CLOUDY    43  38  82 NW8       29.89R
SPIRIT OF STL  CLOUDY    40  37  89 CALM      29.89R
ST CHARLES     CLOUDY    39  36  89 W8        29.90R

$$
MOZ072>076-082>087-097>100-106>115-040200-
...SOUTH CENTRAL AND SOUTHEAST MISSOURI...

CITY           SKY/WX    TMP DP  RH WIND       PRES   REMARKS
CAPE GIRARDEAU RAIN      40  40 100 N5        29.88R VSB 1/2
FARMINGTON     CLOUDY    45  43  93 NW3       29.89R
POPLAR BLUFF   RAIN      43  41  93 S3        29.86R VSB 3/4
WEST PLAINS    LGT RAIN  47  45  93 N5        29.85F FOG

$$


USA.gov is the U.S. government's official web portal to all federal, state and local government web resources and services.